This is the latest recevied weather packets stored in our database for station/object KB1QVF. If no packets are shown the sender has not sent any weather packets the latest 10 day(s).
| Time | Temp. | Humidity | Pressure | Rain* | Wind** | Luminosity | Snow |
|---|---|---|---|---|---|---|---|
| 1777678202 | 13.33° C | 38% | 1012.1 hPa | 0 mm | - | 11 W/m² | - |
| 1777677899 | 13.89° C | 39% | 1012 hPa | 0 mm | - | 14 W/m² | - |
| 1777677596 | 13.89° C | 37% | 1012 hPa | 0 mm | - | 17 W/m² | - |
| 1777677295 | 14.44° C | 35% | 1012 hPa | 0 mm | - | 20 W/m² | - |
| 1777676992 | 14.44° C | 34% | 1011.9 hPa | 0 mm | - | 23 W/m² | - |
| 1777676691 | 15° C | 34% | 1011.6 hPa | 0 mm | - | 25 W/m² | - |
| 1777676388 | 15.56° C | 31% | 1011.7 hPa | 0 mm | - | 37 W/m² | - |
| 1777676086 | 16.67° C | 31% | 1011.6 hPa | 0 mm | - | 43 W/m² | - |
| 1777675781 | 16.67° C | 31% | 1011.7 hPa | 0 mm | - | 52 W/m² | - |
| 1777675479 | 15.56° C | 34% | 1011.6 hPa | 0 mm | - | 68 W/m² | - |
| 1777675176 | 15.56° C | 32% | 1011.5 hPa | 0 mm | - | 58 W/m² | - |
| 1777674872 | 15.56° C | 32% | 1011.6 hPa | 0 mm | - | 65 W/m² | - |
| 1777674568 | 15.56° C | 31% | 1011.6 hPa | 0 mm | - | 75 W/m² | - |
| 1777674266 | 16.11° C | 31% | 1011.6 hPa | 0 mm | - | 89 W/m² | - |
| 1777673962 | 16.67° C | 30% | 1011.4 hPa | 0 mm | - | 92 W/m² | - |
| 1777673659 | 16.67° C | 30% | 1011.5 hPa | 0 mm | - | 105 W/m² | - |
| 1777673357 | 16.67° C | 32% | 1011.4 hPa | 0 mm | - | 133 W/m² | - |
| 1777673054 | 16.67° C | 30% | 1011.5 hPa | 0 mm | - | 151 W/m² | - |
| 1777672750 | 16.67° C | 30% | 1011.5 hPa | 0 mm | - | 187 W/m² | - |
| 1777672447 | 16.67° C | 28% | 1011.4 hPa | 0 mm | - | 193 W/m² | - |
| 1777672143 | 16.11° C | 30% | 1011.3 hPa | 0 mm | - | 217 W/m² | - |
| 1777671843 | 16.11° C | 29% | 1011.4 hPa | 0 mm | - | 235 W/m² | - |
| 1777671539 | 16.11° C | 29% | 1011.3 hPa | 0 mm | - | 251 W/m² | - |
| 1777671236 | 16.11° C | 29% | 1011 hPa | 0 mm | - | 268 W/m² | - |
| 1777670931 | 17.22° C | 31% | 1011.2 hPa | 0 mm | - | 286 W/m² | - |
* Rain latest hour (hover to see other rain measurements)
** Current wind speed in m/s (hover to see current wind gust speed)